This demonstration page uses our WeatherBlox Daily Observations layout. Learn more.

Hourly Observations for January 6, 2016

Temp ( °F °C ) Dew Point ( °F °C ) Humidity (%) Winds ( mph kmh ) Pressure ( in mb ) Visibility ( mi km ) Precip ( " mm )
12:15 am 00:15 Cloudy 34 1.3 32 -0.2 90 90 S 15 24 30.03 1017 10 16.0934 0 0
12:35 am 00:35 Cloudy 34 1.3 32 -0.1 91 91 S 14 22 30.03 1017 10 16.0934 0 0
12:55 am 00:55 Cloudy 34 1.3 32 0 91 91 S 15 24 30 1016 10 16.0934 0 0
1:15 am 01:15 Cloudy 34 1.3 32 0 91 91 S 15 24 30 1016 7 11.26538 0 0
1:35 am 01:35 Cloudy 34 1.2 32 0 92 92 S 14 22 30 1016 7 11.26538 0 0
1:55 am 01:55 Cloudy with Mist and Fog 34 1 32 0 93 93 S 13 20 30 1016 5 8.0467 0 0
2:15 am 02:15 Cloudy with Mist and Fog 34 1 32 0 93 93 S 12 19 30 1016 3 4.82802 0 0
2:35 am 02:35 Cloudy with Mist and Fog 34 0.9 32 0 94 94 S 14 22 30 1016 2.5 4.02335 0 0
2:55 am 02:55 Cloudy with Mist and Fog 33 0.8 32 0 94 94 S 9 15 30 1016 2.5 4.02335 0 0
3:15 am 03:15 Cloudy with Mist and Fog 33 0.8 32 0.1 95 95 S 10 17 30 1016 2.5 4.02335 0 0
3:35 am 03:35 Cloudy with Mist and Fog 33 0.8 32 0.1 95 95 S 14 22 30 1016 2 3.21868 0 0
3:55 am 03:55 Cloudy with Mist and Fog 33 0.8 32 0.1 95 95 S 13 20 30 1016 2.5 4.02335 0 0
4:15 am 04:15 Cloudy with Mist and Fog 33 0.8 32 0.1 95 95 S 14 22 29.97 1015 2.5 4.02335 0 0
4:35 am 04:35 Cloudy with Mist and Fog 33 0.7 32 0.1 96 96 SSE 12 19 29.97 1015 2 3.21868 0 0
4:55 am 04:55 Cloudy with Mist and Fog 33 0.5 32 0 96 96 SSE 12 19 29.97 1015 2 3.21868 0 0
5:15 am 05:15 Cloudy with Mist and Fog 33 0.5 32 0 96 96 SSE 13 20 29.97 1015 1.75 2.816345 0 0
5:35 am 05:35 Cloudy with Mist and Fog 33 0.5 32 0 96 96 SSE 14 22 29.97 1015 1.75 2.816345 0 0
5:55 am 05:55 Cloudy with Mist and Fog 33 0.5 32 0 96 96 SSE 14 22 29.97 1015 1.75 2.816345 0 0
6:15 am 06:15 Cloudy with Mist and Fog 33 0.5 32 0 96 96 SSE 12 19 29.97 1015 1.75 2.816345 0 0
6:35 am 06:35 Cloudy with Mist and Fog 33 0.4 32 0 97 97 SSE 12 19 29.97 1015 1.75 2.816345 0 0
6:55 am 06:55 Cloudy with Mist and Fog 32 0.2 32 0 99 99 SSE 12 19 29.97 1015 1.75 2.816345 0 0
7:15 am 07:15 Cloudy with Mist and Fog 32 0.1 32 -0.1 99 99 SSE 10 17 29.97 1015 1.75 2.816345 0 0
7:35 am 07:35 Cloudy with Mist and Fog 32 0 32 -0.2 99 99 SSE 10 17 29.97 1015 1.25 2.011675 0 0
7:55 am 07:55 Cloudy with Mist and Fog 32 0 32 -0.2 99 99 SSE 9 15 29.97 1015 0.75 1.207005 0 0
8:15 am 08:15 Cloudy with Mist and Fog 32 0 31 -0.3 98 98 SSE 9 15 29.97 1015 0.75 1.207005 0 0
8:35 am 08:35 Cloudy with Fog 32 0 32 -0.2 99 99 SSE 12 19 29.97 1015 0.5 0.80467 0 0
8:55 am 08:55 Cloudy with Mist and Fog 32 0 32 -0.2 99 99 SSE 10 17 29.97 1015 0.75 1.207005 0 0
9:15 am 09:15 Cloudy with Fog 32 0.1 32 -0.2 98 98 SSE 9 15 29.97 1015 0.25 0.402335 0 0
9:35 am 09:35 Cloudy with Fog 32 0.1 32 -0.1 99 99 SSE 9 15 29.97 1015 0.25 0.402335 0 0
9:55 am 09:55 Cloudy with Fog 32 0.1 32 0 99 99 SSE 9 15 29.97 1015 0.25 0.402335 0 0
10:15 am 10:15 Cloudy with Fog 32 0.2 32 0 99 99 SSE 8 13 29.97 1015 0.25 0.402335 0 0
10:35 am 10:35 Cloudy with Fog 33 0.4 32 0 97 97 SSE 9 15 29.97 1015 0.25 0.402335 0 0
10:55 am 10:55 Cloudy with Fog 33 0.5 32 0 96 96 SSE 10 17 29.97 1015 0.25 0.402335 0 0
11:15 am 11:15 Cloudy with Fog 33 0.5 32 0.1 97 97 S 8 13 29.97 1015 0.25 0.402335 0 0
11:35 am 11:35 Cloudy with Fog 33 0.6 32 0.1 97 97 SSE 8 13 29.97 1015 0.25 0.402335 0 0
11:55 am 11:55 Cloudy with Fog 33 0.6 32 0.1 97 97 S 9 15 29.97 1015 0.25 0.402335 0 0
12:15 pm 12:15 Cloudy with Fog 33 0.7 32 0.2 97 97 SSE 9 15 29.94 1014 0.25 0.402335 0 0
12:35 pm 12:35 Cloudy with Fog 33 0.7 32 0.2 97 97 S 7 11 29.94 1014 0.25 0.402335 0 0
12:55 pm 12:55 Cloudy with Fog 33 0.8 33 0.3 97 97 S 7 11 29.88 1012 5 8.0467 0 0
1:15 pm 13:15 Cloudy with Fog 34 1 33 0.5 97 97 S 6 9 29.88 1012 0.25 0.402335 0 0
1:35 pm 13:35 Cloudy with Fog 34 1.1 33 0.7 97 97 S 7 11 29.88 1012 0.5 0.80467 0 0
1:55 pm 13:55 Cloudy with Mist and Fog 34 1.2 33 0.7 97 97 S 8 13 29.88 1012 0.75 1.207005 0 0
2:15 pm 14:15 Cloudy with Mist and Fog 34 1.3 33 0.8 97 97 S 7 11 29.85 1011 1 1.60934 0 0
2:35 pm 14:35 Cloudy with Mist and Fog 34 1.3 33 0.8 97 97 S 6 9 29.85 1011 0.75 1.207005 0 0
2:55 pm 14:55 Cloudy with Mist and Fog 35 1.5 34 1 97 97 S 6 9 29.85 1011 0.75 1.207005 0 0
3:15 pm 15:15 Cloudy with Fog 34 1.3 34 0.9 97 97 S 7 11 29.85 1011 0.25 0.402335 0 0
3:35 pm 15:35 Cloudy with Fog 35 1.5 34 1 97 97 SSE 5 7 29.85 1011 0.25 0.402335 0 0
3:55 pm 15:55 Cloudy with Fog 35 1.5 34 1 97 97 SSE 6 9 29.85 1011 0.25 0.402335 0 0
4:15 pm 16:15 Cloudy with Fog 35 1.4 34 1 97 97 S 6 9 29.85 1011 0.25 0.402335 0 0
4:35 pm 16:35 Cloudy with Fog 34 1.3 33 0.8 97 97 SSE 6 9 29.85 1011 0.25 0.402335 0 0
4:55 pm 16:55 Cloudy with Fog 34 1.3 33 0.8 97 97 S 5 7 29.88 1012 0.25 0.402335 0 0
5:15 pm 17:15 Cloudy with Fog 34 1.2 33 0.7 97 97 S 5 7 29.88 1012 0.25 0.402335 0 0
5:35 pm 17:35 Cloudy with Fog 34 1.2 33 0.7 97 97 SSE 3 6 29.88 1012 0.25 0.402335 0 0
5:55 pm 17:55 Cloudy with Fog 34 1.1 33 0.7 97 97 SSE 3 6 29.88 1012 0.25 0.402335 0 0
6:15 pm 18:15 Cloudy with Fog 34 1.1 33 0.7 97 97 Calm 29.88 1012 0.25 0.402335 0 0
6:35 pm 18:35 Cloudy with Fog 34 1 33 0.6 97 97 Calm 29.88 1012 0.25 0.402335 0 0
6:55 pm 18:55 Cloudy with Fog 34 1 33 0.5 97 97 SE 3 6 29.88 1012 0.25 0.402335 0 0
7:15 pm 19:15 Cloudy with Fog 34 1 33 0.5 97 97 Calm 29.88 1012 0.25 0.402335 0 0
7:35 pm 19:35 Cloudy with Fog 34 0.9 33 0.5 97 97 Calm 29.88 1012 5 8.0467 0 0
7:55 pm 19:55 Cloudy with Fog 34 0.9 33 0.5 97 97 Calm 29.88 1012 5 8.0467 0 0
8:15 pm 20:15 Cloudy with Fog 33 0.8 33 0.5 98 98 SE 3 6 29.88 1012 5 8.0467 0 0
8:35 pm 20:35 Cloudy with Fog 34 1 33 0.7 98 98 SE 3 6 29.88 1012 0.25 0.402335 0 0
8:55 pm 20:55 Cloudy with Fog 33 0.8 33 0.5 98 98 SE 3 6 29.88 1012 0.25 0.402335 0 0
9:15 pm 21:15 Cloudy with Fog 33 0.8 33 0.5 98 98 SE 5 7 29.94 1014 0.25 0.402335 0 0
9:35 pm 21:35 Cloudy with Fog 33 0.8 33 0.5 98 98 Calm 29.94 1014 0.25 0.402335 0 0
9:55 pm 21:55 Cloudy with Fog 33 0.8 33 0.5 98 98 SSE 3 6 29.88 1012 0.25 0.402335 0 0
10:15 pm 22:15 Cloudy with Fog 33 0.7 33 0.3 97 97 Calm 29.88 1012 0.25 0.402335 0 0
10:35 pm 22:35 Cloudy with Fog 33 0.7 33 0.3 97 97 Calm 29.88 1012 0.25 0.402335 0 0
10:55 pm 22:55 Cloudy with Fog 33 0.5 32 0.1 97 97 Calm 29.88 1012 0.25 0.402335 0 0
11:15 pm 23:15 Cloudy with Fog 33 0.5 32 0 96 96 Calm 29.88 1012 0.25 0.402335 0 0
11:55 pm 23:55 Cloudy with Fog 32 0.2 32 0 99 99 Calm 29.91 1013 0.5 0.80467 0 0

Powered by AerisWeather